Other Public Products
Issued by NWS Grand Forks, ND

Home | Current Version | Previous Version | Graphics & Text | Print | Product List | Glossary On
Versions: 1 2 3 4 5 6 7 8 9 10 11 12 13 14 15 16 17 18 19 20 21 22 23 24 25 26 27 28 29 30 31 32 33 34 35 36 37 38 39 40 41 42 43 44 45 46 47 48 49 50
584
FPUS83 KFGF 291910
OPUFGF
PRAIRIE TO PINES WEATHER ROUNDUP
NATIONAL WEATHER SERVICE EASTERN NORTH DAKOTA/GRAND FORKS ND
200 PM CDT MON AUG 29 2016

 **SATELLITE DATA USED TO AUGMENT SKY COVER AT AUTOMATED STATIONS**
 *****  WEATHER ACROSS EASTERN NORTH DAKOTA  *****

CITY           SKY/WX    TMP DP  RH WIND       PRES   REMARKS
GRAND FORKS    MOSUNNY   79  63  57 NW10      30.15F
GRAND FORKS AF SUNNY     78  62  58 N9        30.17F
GRAND CITY NWS   N/A     79 N/A N/A N9          N/A
BUXTON           N/A     80  70  72 NW9         N/A
DEVILS LAKE    SUNNY     71  50  47 NW12      30.24F
FARGO          CLOUDY    79  70  74 N10       30.15S
WAHPETON ARPT  CLOUDY    81  64  57 W5        30.15R
$$

 *****  WEATHER ACROSS CENTRAL AND WESTERN NORTH DAKOTA  *****

CITY           SKY/WX    TMP DP  RH WIND       PRES   REMARKS
JAMESTOWN      MOSUNNY   76  61  59 NW12      30.22S
BISMARCK       SUNNY     77  53  43 MISG      30.26F
MINOT          SUNNY     73  46  38 VRB6      30.27F
MINOT AFB      SUNNY     71  43  36 VRB3      30.26F
GARRISON         N/A     75  48  38 VRB3      30.27F
WILLISTON      SUNNY     74  39  28 VRB6      30.29F
DICKINSON      SUNNY     77  44  30 E9        30.28F
HETTINGER      SUNNY     79  48  33 E14       30.30F
$$

 *****  OTHER OBSERVATIONS NORTHEAST NORTH DAKOTA  *****

CITY           SKY/WX    TMP DP  RH WIND       PRES   REMARKS
WALHALLA       NOT AVBL
LANGDON        FAIR      73  50  43 NW13      30.22F
CAVALIER       FAIR      73  57  56 W7        30.18F
GRAFTON        FAIR      77  61  57 N12       30.18F
CANDO          NOT AVBL
FORT TOTTEN    NOT AVBL
ROLLA          FAIR      66  50  55 W9        30.27S
RUGBY          FAIR      72  46  40 NW10      30.25S
 ***** THE ABOVE OBSERVATIONS ARE NON NWS ARE NOT QUALITY
        CONTROLLED AND MAY MIS-REPORT RAIN FOR SNOW...
$$

 *****  OTHER OBSERVATIONS SOUTHEAST NORTH DAKOTA *****

CITY           SKY/WX    TMP DP  RH WIND       PRES   REMARKS
COOPERSTOWN    NOT AVBL
VALLEY CITY    FAIR      75  66  73 NW15      30.22S
OAKES            N/A    N/A N/A N/A MISG        N/A
GWINNER        MOCLDY    81  72  74 N9        30.16S
SHEYENNE NWR     N/A     80  70  71 N8        29.95S
BUFFALO          N/A     76  61  60 N10         N/A
WYNDMERE       NOT AVBL
 ***** THE ABOVE OBSERVATIONS ARE NON NWS ARE NOT QUALITY
       CONTROLLED AND MAY MIS-REPORT RAIN FOR SNOW...
$$

  *****  WEATHER ACROSS NORTHERN MINNESOTA  *****

CITY           SKY/WX    TMP DP  RH WIND       PRES   REMARKS
FLAG ISLAND    MOSUNNY   72  64  78 S3        30.10S
WARROAD        NOT AVBL
ROSEAU         SUNNY     79  66  65 NW13      30.13S
HALLOCK        SUNNY     75  59  57 NW13      30.16R
THF RVR FALLS  PTSUNNY   75  66  73 NW14      30.16F
HALSTAD          N/A     76  68  76 N8          N/A
FOSSTON        CLOUDY    72  66  83 W8        30.17S
BAUDETTE       MOSUNNY   76  67  73 NW10      30.12R
WASKISH        PTSUNNY   75  68  78 SW9       30.13S
CROOKSTON      MOSUNNY   75  66  73 NW10G18   30.16S
$$
  *****  WEATHER ACROSS CENTRAL AND WEST MINNESOTA  *****

CITY           SKY/WX    TMP DP  RH WIND       PRES   REMARKS
BEMIDJI        CLOUDY    77  69  75 W13G18    30.15S
PARK RAPIDS    PTSUNNY   83  69  62 NW14      30.15F
WADENA         SUNNY     81  68  65 W8        30.16S
DETROIT LAKES  PTSUNNY   79  70  73 NW10      30.18S
MOORHEAD       MOSUNNY   82  70  65 NW12      30.15S
FERGUS FALLS   CLOUDY    81  68  65 W8        30.15S
ELBOW LAKE     MOCLDY    82  71  68 W10       30.16R HAZE
MORRIS MN      NOT AVBL
STAPLES        SUNNY     81  64  57 W5        30.16S
WHEATON        NOT AVBL
$$
  *****  WEATHER ELSEWHERE ACROSS MINNESOTA  *****

CITY           SKY/WX    TMP DP  RH WIND       PRES   REMARKS
DULUTH         PTSUNNY   78  65  63 W10       30.14R
INTRNTL FALLS  MOSUNNY   80  68  66 NW16      30.10S
ELY            CLOUDY    77  64  65 SW8       30.12S
CLOQUET        MOSUNNY   79  63  57 SW9       30.14S
BRAINERD       SUNNY     80  65  59 W8        30.16S
HIBBING        SUNNY     77  67  71 W6        30.13S
ALEXANDRIA     MOSUNNY   84  72  67 S9        30.17F
SAINT CLOUD    SUNNY     84  72  67 S10       30.14S
MINNEAPOLIS    PTSUNNY   82  68  62 S15       30.15F
$$

  *****  WEATHER ACROSS SOUTH DAKOTA  *****

CITY           SKY/WX    TMP DP  RH WIND       PRES   REMARKS
SIOUX FALLS    PTSUNNY   82  70  66 S10       30.18F
BROOKINGS      MOSUNNY   83  73  72 S12       30.17F
WATERTOWN      SUNNY     85  71  63 S12       30.15S HX  90
HURON          MOSUNNY   87  70  56 S10       30.12F HX  92
SISSETON         N/A     84  71  65 S5        30.13S
ABERDEEN       PTSUNNY   82  69  64 NE7       30.16R
MITCHELL       PTSUNNY   87  70  56 SE10      30.14F HX  92
PIERRE         SUNNY     88  64  44 NE14      30.13S
MOBRIDGE       SUNNY     85  56  37 N20       30.17F
RAPID CITY     SUNNY     80  57  45 N15       30.27F
$$

  *****  SOME WEATHER IN NEARBY STATES *****

CITY           SKY/WX    TMP DP  RH WIND       PRES   REMARKS
GLASGOW MT     SUNNY     73  45  36 SE13      30.26F
GREAT FALLS MT SUNNY     76  47  35 NE9       30.20F
CHEYENNE WY    CLOUDY    77  41  27 E14       30.36S
SCOTTSBLUFF NE CLOUDY    84  55  36 S9        30.24F
OMAHA NE       CLOUDY    86  72  62 SE7       30.17F HX  92
DES MOINES IA  CLOUDY    85  73  67 S5        30.18F HX  91
DAVENPORT IA   MOSUNNY   84  74  71 E6        30.20F HX  91
CHICAGO IL     PTSUNNY   86  70  58 NE7       30.21F HX  90
EAU CLAIRE WI  PTSUNNY   80  69  69 S9        30.17S
LA CROSSE WI   CLOUDY    83  71  67 S8        30.19F
$$

  *****  SOME NATIONAL WEATHER *****

CITY           SKY/WX    TMP DP  RH WIND       PRES   REMARKS
LA GUARDIA NY  MOSUNNY   90  62  39 NW15      30.06F HX  90
RALEIGH NC     MOSUNNY   89  60  37 N9        30.12F
ATLANTA GA     PTSUNNY   88  70  55 NE16      30.12F HX  93
NEW ORLEANS LA CLOUDY    92  76  59 NE9       29.98F HX 104
OKLAHOMA CITY  PTSUNNY   90  64  42 CALM      30.12F HX  91
ALBUQUERQUE NM MOSUNNY   77  48  35 E8        30.26F
SALT LAKE CITY MOSUNNY   89  36  15 VRB6      30.19F
LOS ANGELES CA SUNNY     76  63  64 W13       29.96S
BOISE ID       PTSUNNY   89  41  18 VRB6      30.09F SMOKE
SEATTLE WA     MOSUNNY   69  54  58 W3        30.05F
$$

*** WEATHER ACROSS MANITOBA...SASKATCHEWAN AND ONTARIO ***
                ***ONTARIO***

CITY           SKY/WX    TMP DP  RH WIND       PRES   REMARKS
GERALDTON      CLOUDY    63  61  94 S7        30.13F
THUNDER BAY    PTSUNNY   77  66  69 SW5       30.08F
SIOUX LOOKOUT  LGT RAIN  66  64  94 W6        30.09S
TORONTO        MOSUNNY   81  64  57 S8        30.23F
BIG TROUT LK   MOSUNNY   77  63  61 SW8       29.91F THUNDER
PICKLE LAKE    PTSUNNY   75  59  57 W9        30.01F
DRYDEN         CLOUDY    72  64  78 W10       30.10S
KENORA         PTSUNNY   72  63  73 NW9G17    30.12R
$$
                *** MANITOBA***

CITY           SKY/WX    TMP DP  RH WIND       PRES   REMARKS
BRANDON        MOSUNNY   68  46  45 NW15G23   30.24S
DAUPHIN        SUNNY     68  45  42 W18G26    30.19S
ISLAND LAKE    PTSUNNY   61  52  72 W15G22    30.01S
PILOT MOUND      N/A     66  50  55 W10         N/A
THE PAS        MOSUNNY   63  45  51 W20       30.08S
THOMPSON       LGT RAIN  59  50  72 W14G21    29.92S
WINNIPEG       MOSUNNY   70  52  52 W16       30.18R
LYNN LAKE      CLOUDY    54  52  94 MISG      29.92S FOG
CHURCHILL      LGT RAIN  52  52 100 E12       29.81F FOG
GILLAM         CLOUDY    59  50  72 W10G18    29.88R
$$
                ***SASKATCHEWAN***

CITY           SKY/WX    TMP DP  RH WIND       PRES   REMARKS
ESTEVAN        PTSUNNY   70  43  37 VRB6      30.28F
KINDERSLEY     PTSUNNY   64  43  45 SE8       30.25F
LLOYDMINSTER   PTSUNNY   59  41  51 VRB5      30.26F
PRINCE ALBERT  MOSUNNY   63  41  45 NW12G23   30.24F
REGINA         MOSUNNY   64  41  42 W8        30.28F
YORKTON        SUNNY     63  45  51 W13G18    30.23F   C1F1C2F2C3F3C4F4C5F5C6F6C7F7C8F8C9F9CaFaCbFbCcFcCdFdCe!



USA.gov is the U.S. government's official web portal to all federal, state and local government web resources and services.